User: anonymous   Login
Location: Passau
(48.5830°N, 13.4830°E)
Time: 05:46:20
(UTC+02:00)
Language:

Courier 1B Rocket - Orbit

View from above orbital plane
View from above orbital plane
View from above satellite
View from above satellite

Ground track
Ground track

The orbit data is extracted from the following two-line orbital elements,

1    59U 60013B   24141.83714298  .00000216  00000-0  17349-3 0  9994
2    59  28.2492  54.8594 0189031  77.6236 284.5398 13.53073867141380
Epoch (UTC): 20 May 2024 20:05:29
Eccentricity: 0.0189031
inclination: 28.2492°
perigee height: 920 km
apogee height: 1201 km
right ascension of ascending node: 54.8594°
argument of perigee: 77.6236°
revolutions per day: 13.53073867
mean anomaly at epoch: 284.5398°
orbit number at epoch: 14138

The dashed part of the orbit path shows where the satellite is in the earth's shadow,  

DLR